#timestamp,LO_Frequency,Hit 
1498413615.4,286047002.6,N
1498413635.3,286047002.3,N
1498413655.1,286047000.2,N
1498413675.8,286047002.4,N
1498413695.7,286047002.7,N
1498413715.5,286047002.1,N
1498413735.4,286047002.7,N
1498413755.2,286047002.4,N
1498413775.0,286047001.8,N
1498413775.9,286047001.8,N
1498413795.8,286047002.7,N
1498413815.6,286047002.0,N
1498413835.4,286046999.7,N
1498413855.3,286047002.8,N
1498413875.1,286047000.0,N
1498413895.9,286047000.9,N
1498413915.7,286046998.2,N
1498413935.5,286046998.3,N
1498413955.4,286047001.2,N
1498413975.2,286047000.6,N
1498413995.1,286047001.1,N
1498413996.0,286047001.1,N
1498414015.8,286046998.3,N
1498414035.6,286046998.6,N
1498414055.5,286047000.7,N
1498414075.3,286046998.6,N
1498414095.1,286047001.0,N
1498414115.9,286046998.3,N
1498414135.7,286047000.3,N
1498414155.6,286047002.5,N
1498414175.4,286047002.5,N
1498414195.2,286047002.2,N
1498414215.1,286047001.7,N
1498414216.0,286047001.7,N
1498414235.8,286047002.5,N
1498414255.6,286047002.3,N
1498414275.5,286047000.3,N
1498414295.3,286047000.1,N
1498414315.2,286047002.6,N
1498414335.9,286046999.8,N
1498414355.7,286047001.5,N
1498414375.6,286047002.5,N
1498414395.4,286047002.6,N
1498414415.2,286047000.2,N
1498414435.1,286047002.7,N
1498414436.0,286047002.7,N
1498414455.8,286046999.8,N
1498414475.7,286046999.8,N
1498414495.5,286046999.8,N
1498414515.3,286046999.7,N
1498414535.2,286046999.9,N
1498414555.0,286046999.7,N
1498414555.9,286046999.7,N
1498414575.8,286047000.1,N
1498414595.6,286047002.8,N
1498414615.4,286047000.1,N
1498414635.3,286047000.1,N
1498414655.1,286046999.8,N
1498414675.8,286047002.8,N
1498414695.7,286047000.2,N
1498414715.5,286046999.8,N
1498414735.4,286046999.8,N
1498414755.2,286047000.2,N
1498414775.0,286047002.8,N
1498414775.9,286047002.8,N
1498414795.8,286047001.9,N
1498414815.6,286047001.8,N
1498414835.4,286047001.8,N
1498414855.3,286047001.6,N
1498414875.1,286047001.8,N
1498414895.9,286047002.0,N
1498414915.7,286047002.1,N
1498414935.5,286047002.2,N
1498414955.4,286047002.1,N
1498414975.2,286047001.5,N
1498414995.0,286047004.4,N
1498414995.9,286047004.4,N
1498415015.8,286047004.2,N
1498415035.9,286047004.1,N
1498415055.7,286047003.5,N
1498415075.6,286047003.7,N
1498415095.4,286047003.8,N
1498415115.2,286047003.5,N
1498415135.1,286047004.0,N
1498415136.0,286047004.0,N
1498415155.8,286047004.2,N
1498415175.6,286047004.2,N
1498415195.5,286047004.0,N
1498415215.3,286047003.1,N
1498415235.2,286047003.8,N
1498415255.0,286047003.7,N
1498415255.9,286047003.7,N
1498415275.7,286047003.7,N
1498415295.6,286047003.8,N
1498415315.4,286047003.1,N
1498415335.3,286047004.4,N
1498415355.1,286047004.3,N
1498415356.0,286047004.3,N
1498415375.8,286047003.9,N
1498415395.7,286047003.8,N
1498415415.5,286047003.5,N
1498415435.3,286047003.0,N
1498415455.2,286047004.1,N
1498415475.0,286047003.8,N
1498415475.9,286047003.8,N
1498415495.8,286047004.2,N
1498415515.6,286047003.6,N
1498415535.4,286047001.4,N
1498415555.3,286047003.6,N
1498415575.1,286047003.3,N
1498415595.9,286047003.5,N
1498415615.7,286047003.6,N
1498415635.5,286047003.5,N
1498415655.4,286047004.1,N
1498415675.2,286047003.9,N
1498415695.0,286047003.1,N
1498415695.9,286047003.1,N
1498415715.8,286047003.8,N
1498415735.6,286047001.3,N
1498415755.5,286047001.8,N
1498415775.3,286047004.2,N
1498415795.1,286047004.3,N
1498415815.9,286047001.5,N
1498415835.7,286047003.7,N
1498415855.6,286047004.3,N
1498415875.4,286047003.5,N
1498415895.2,286047003.0,N
1498415915.1,286047004.2,N
1498415916.0,286047004.2,N
1498415935.8,286047001.8,N
1498415955.6,286047004.2,N
1498415975.5,286047003.5,N
1498415995.3,286047004.0,N
1498416015.2,286047003.6,N
1498416035.9,286047003.5,N
1498416055.7,286047003.7,N
1498416075.6,286047001.4,N
1498416095.4,286047001.7,N
1498416115.2,286047002.1,N
1498416135.1,286047003.7,N
1498416136.0,286047003.7,N
1498416155.8,286047003.4,N
1498416175.7,286047005.6,N
1498416195.5,286047005.6,N
1498416215.3,286047003.3,N
1498416235.2,286047003.5,N
1498416255.0,286047003.6,N
1498416255.9,286047003.6,N
1498416275.7,286047003.6,N
1498416295.6,286047005.9,N
1498416315.4,286047002.9,N
1498416335.3,286047003.4,N
1498416355.1,286047003.1,N
1498416375.8,286047004.2,N
1498416395.7,286047004.1,N
1498416415.5,286047004.3,N
1498416435.4,286047003.5,N
1498416455.2,286047002.9,N
1498416475.0,286047005.5,N
1498416475.9,286047005.5,N
1498416495.8,286047003.4,N
1498416515.6,286047003.2,N
1498416535.4,286047002.9,N
1498416555.3,286047003.4,N
1498416575.1,286047003.8,N
1498416595.9,286047003.7,N
1498416615.7,286047003.4,N
1498416635.5,286047005.9,N
1498416655.4,286047004.8,N
1498416675.2,286047005.0,N
1498416695.0,286047005.8,N
1498416695.9,286047005.8,N
1498416715.8,286047004.1,N
1498416735.6,286047005.7,N
1498416755.5,286047005.6,N
1498416775.3,286047005.2,N
1498416795.1,286047005.0,N
1498416815.9,286047004.9,N
1498416835.7,286047005.8,N
1498416855.5,286047005.6,N
1498416875.4,286047004.6,N
1498416895.2,286047004.8,N
1498416915.1,286047005.1,N
1498416916.0,286047005.1,N
1498416935.8,286047005.9,N
1498416955.6,286047005.9,N
1498416975.5,286047005.5,N
1498416995.3,286047005.2,N
1498417015.1,286047002.9,N
1498417035.9,286047005.6,N
1498417055.7,286047003.2,N
1498417075.6,286047005.9,N
1498417095.4,286047003.2,N
1498417115.2,286047003.6,N
1498417135.1,286047001.4,N
1498417136.0,286047001.4,N
1498417155.8,286047003.6,N
1498417175.6,286047005.5,N
1498417195.5,286047003.7,N
